Temperature
8 6 6 6 7 8 8 7 8 8 8 8 7 7 8 8 8 7 8 8 8 8 9 9 9 9 9 10 10 10 10 10 10 10 10 10 10 10 11 10 10 10 10 10
6 6 7 7 7 8 8 7 7 8 8 8 7 7 7 7 7 8 7 8 8 8 8 8 9 9 9 9 9 9 9 10 10 10 10 10 10 10 10 10 10 10 10 10
6 7 8 7 7 7 7 7 7 7 7 8 7 7 7 7 7 7 8 8 8 8 8 8 8 8 9 9 9 9 9 9 9 9 9 9 9 9 9 9 9 9 9 9
6 6 7 7 7 7 7 7 7 7 6 5 7 6 6 6 7 6 7 7 7 7 7 8 8 8 8 8 8 8 8 9 9 9 9 9 9 9 9 9 9 9 9 8
5 6 6 7 7 7 7 7 7 7 6 5 6 5 6 6 6 6 6 6 7 7 7 7 8 8 8 8 8 8 8 8 8 8 8 8 8 8 8 8 8 8 8 8
5 6 6 6 7 7 7 6 6 5 5 5 5 5 6 5 6 6 6 6 6 6 7 7 7 7 7 7 7 8 8 8 7 7 7 7 7 7 7 7 7 7 7 7
5 6 6 6 6 6 6 5 5 5 4 5 6 5 6 6 5 5 5 5 6 6 6 6 6 6 7 7 7 7 7 7 7 7 7 7 6 6 6 6 7 7 7 7
4 5 5 5 6 5 5 5 5 5 5 5 5 5 5 5 5 6 6 6 5 6 6 6 6 6 6 6 6 7 6 6 6 6 6 6 6 6 6 6 6 6 6 6
4 4 5 5 6 6 5 4 5 4 4 4 5 5 5 5 5 4 5 5 5 5 5 5 5 5 6 6 6 6 6 6 6 6 6 6 5 5 5 5 5 5 5 5
4 4 4 5 5 5 5 5 4 4 5 5 5 5 5 5 4 4 3 4 4 5 5 5 5 5 5 5 5 5 5 5 5 5 5 5 5 5 5 5 4 5 5 5
4 3 3 4 4 4 4 4 4 3 3 4 5 5 5 4 4 3 3 4 4 4 4 4 4 4 4 4 4 5 5 5 5 5 5 4 4 4 4 4 4 4 4 4
3 2 2 3 4 4 4 4 3 4 3 3 3 5 5 3 3 3 3 4 4 4 4 4 4 4 4 4 4 4 4 4 4 4 4 4 4 4 3 3 3 3 3 4
3 2 3 3 4 3 3 3 3 3 2 2 3 5 4 3 3 3 4 4 4 4 4 4 4 4 3 3 3 3 3 3 3 3 3 3 3 3 3 3 3 3 3 3
3 1 2 4 4 2 2 2 2 2 2 2 3 4 4 3 3 3 3 4 4 4 4 3 3 3 3 3 3 3 3 3 3 3 3 3 3 2 2 2 2 2 2 2
2 1 1 2 2 2 2 2 2 2 2 2 3 3 3 3 2 3 3 3 3 3 3 3 3 3 3 2 2 2 2 2 2 2 2 2 2 2 2 2 2 2 2 2
1 1 1 1 2 2 2 2 2 2 2 2 2 2 2 2 3 2 2 2 2 2 3 3 2 2 2 2 2 2 2 2 1 1 1 1 1 1 1 1 1 1 1 1
-0 0 0 1 1 2 2 2 2 1 1 1 2 3 2 1 1 2 2 2 2 2 2 2 2 2 2 2 2 1 1 1 1 1 1 1 1 1 0 0 0 0 1 1
-0 -0 -1 -0 0 1 3 2 1 1 1 1 1 1 1 1 2 2 2 2 2 2 2 2 2 2 2 1 1 1 1 1 1 1 0 0 0 0 -0 -0 -0 -0 0 0
-0 -0 -1 -1 -0 1 2 2 1 1 1 1 0 1 1 1 1 1 2 2 2 2 2 2 2 1 1 1 1 1 1 0 0 0 0 -0 -0 -0 -0 -0 -0 -0 -0 -0
-1 -1 -1 -1 -0 1 3 2 1 1 1 1 1 0 0 0 -0 0 2 1 2 1 1 1 1 1 1 1 1 0 0 0 -0 -0 -0 -0 -1 -1 -1 -1 -1 -1 -1 -0
-2 -2 -2 -2 -1 0 1 1 1 2 2 2 1 1 1 -0 0 1 1 1 1 1 1 1 1 1 1 0 0 -0 -0 -0 -0 -0 -1 -1 -1 -1 -1 -1 -1 -1 -1 -1
-2 -2 -2 -2 -1 1 1 -0 0 1 2 2 2 2 1 1 1 1 1 1 1 0 0 0 0 0 0 -0 -0 -0 -0 -1 -1 -1 -1 -1 -1 -1 -1 -1 -1 -1 -1 -1
-2 -1 -2 -1 1 1 1 1 2 2 2 2 2 1 1 1 1 0 0 0 -0 -0 -0 -0 -0 -0 -0 -1 -1 -1 -1 -1 -1 -1 -2 -1 -1 -1 -1 -1 -1 -1 -2 -2
-3 -2 -2 -2 -1 -0 1 2 2 2 2 2 1 1 1 1 0 -0 -0 -0 -0 -1 -1 -1 -1 -1 -1 -1 -1 -1 -2 -2 -2 -2 -2 -2 -2 -1 -1 -2 -2 -2 -2 -2
-2 -3 -3 -2 -2 -1 1 2 2 2 2 1 1 1 0 0 -0 -0 -1 -1 -1 -1 -1 -1 -1 -1 -1 -1 -1 -2 -2 -2 -2 -2 -2 -2 -2 -2 -2 -2 -2 -2 -2 -3
-3 -3 -2 -1 0 -1 1 2 2 1 1 1 1 0 -0 -0 -0 -1 -1 -1 -1 -1 -1 -1 -2 -2 -2 -2 -2 -2 -2 -2 -2 -2 -2 -2 -3 -3 -3 -3 -2 -2 -3 -3
Wind_Speed
1 3 4 6 6 4 3 3 5 5 3 2 6 9 9 6 5 6 6 6 5 6 5 3 3 2 2 2 2 2 1 2 2 2 2 2 1 1 1 1 2 2 2 3
2 4 7 4 4 4 4 4 5 5 3 3 5 9 8 7 6 7 7 7 7 5 3 3 3 2 3 3 3 2 2 2 2 2 1 2 1 1 1 1 2 2 1 2
6 4 3 3 3 4 5 6 5 5 5 3 4 7 6 4 4 3 4 5 5 6 5 4 4 3 3 3 3 3 3 2 1 1 2 2 2 1 1 1 0 2 1 1
3 4 2 2 3 4 6 5 4 3 2 4 1 5 6 4 4 4 4 3 4 4 3 3 4 4 4 3 3 2 3 2 2 2 3 3 2 1 1 1 1 1 1 1
3 2 2 4 5 4 5 2 3 3 2 4 2 3 7 3 5 7 6 5 4 4 4 4 4 4 4 3 3 3 3 2 2 3 3 3 1 1 1 1 0 1 1 1
3 2 2 3 2 3 2 2 2 2 2 4 5 5 7 3 5 5 5 5 4 4 3 2 1 2 1 2 3 3 3 2 2 2 2 2 2 1 1 1 1 1 1 1
3 3 2 1 0 1 3 4 3 3 1 6 3 4 7 5 3 3 4 5 4 3 3 1 1 1 1 1 2 3 3 2 1 2 2 2 2 2 3 3 2 2 2 2
2 5 4 2 4 4 3 5 5 4 4 5 2 5 6 4 3 1 2 3 3 2 2 2 3 3 2 2 2 2 2 2 1 1 1 1 2 2 2 3 3 3 3 3
5 5 2 2 2 5 3 3 4 3 1 3 5 5 5 3 4 3 3 3 2 2 1 1 1 1 2 2 2 2 3 2 2 1 1 1 1 1 2 3 3 3 3 3
5 3 3 2 1 0 3 4 3 3 2 4 5 5 4 4 3 2 1 0 1 1 0 0 0 1 0 1 0 1 1 2 2 2 2 1 2 2 2 2 3 4 4 4
2 3 2 1 4 5 3 2 2 3 3 3 4 6 4 5 4 3 3 2 2 2 2 2 1 1 0 0 0 0 0 1 1 2 2 2 3 2 3 3 4 5 5 5
1 3 2 5 3 2 4 4 5 4 4 4 3 7 2 2 3 3 3 3 2 3 2 2 1 1 0 0 0 1 1 1 2 2 2 2 3 3 3 4 4 5 5 5
2 2 0 3 2 1 1 2 3 3 2 4 4 6 1 1 1 2 2 3 3 2 1 1 1 1 2 2 2 2 2 2 2 2 2 3 3 3 4 4 5 5 5 4
2 2 5 6 5 3 3 4 3 4 4 5 8 9 7 4 4 5 4 4 3 2 2 2 2 3 3 2 2 3 3 2 2 2 2 3 3 3 4 4 4 4 4 4
2 3 4 5 5 3 6 7 7 8 9 8 9 10 11 7 6 6 5 4 2 2 3 3 4 4 3 3 3 3 3 3 2 2 3 3 3 3 3 4 4 4 4 4
1 2 1 4 3 4 6 9 9 10 9 10 9 12 8 5 3 4 4 3 3 4 4 5 4 3 3 3 3 3 3 3 2 2 3 3 3 3 3 3 4 4 4 4
1 2 1 3 4 4 7 8 9 6 7 7 10 10 5 4 5 6 4 4 4 5 5 5 4 4 4 4 4 3 3 3 3 3 4 3 3 3 3 3 4 4 4 4
4 3 2 2 2 5 7 2 5 6 7 8 7 7 5 6 6 4 3 3 4 4 4 4 4 4 4 3 3 3 2 2 3 3 4 4 3 4 3 4 4 4 4 4
5 5 3 2 3 7 6 3 4 5 6 6 7 8 5 2 3 3 3 3 4 5 5 4 4 4 3 3 2 2 2 2 3 4 4 4 4 4 4 4 5 4 4 4
2 3 3 3 3 6 6 3 2 2 5 4 5 6 4 1 2 5 2 3 3 4 3 3 3 2 2 2 1 1 2 2 3 4 4 4 4 4 4 5 4 4 4 4
2 2 4 5 5 8 6 2 3 3 6 3 4 5 4 5 6 3 3 3 3 3 3 3 2 3 3 2 2 2 2 4 4 4 3 3 4 4 4 4 3 3 3 3
6 5 5 5 5 9 3 4 5 6 3 2 3 3 4 4 4 3 3 3 3 3 3 3 2 3 3 2 1 2 4 4 3 3 3 3 3 3 3 3 3 3 3 3
6 7 5 8 8 4 4 6 5 3 3 3 3 3 3 3 3 3 3 3 3 3 3 3 2 3 3 2 1 3 4 3 2 2 3 3 3 2 2 3 3 2 2 2
5 3 3 6 8 6 6 6 4 4 4 4 4 4 3 4 4 4 3 3 3 3 3 3 2 2 3 3 2 3 3 2 2 2 3 3 3 2 2 2 2 2 3 3
6 4 4 6 8 7 6 6 6 4 3 3 3 3 4 4 4 4 3 3 3 3 3 2 2 3 4 3 3 3 2 2 2 3 3 3 2 2 2 2 2 3 3 3
6 7 7 8 7 6 7 5 4 4 4 4 3 3 3 3 4 3 3 3 3 3 3 3 3 3 4 3 3 3 3 2 2 3 3 2 2 2 2 2 3 4 4 5
Wind_Direction
98 103 208 217 209 214 193 215 254 261 273 261 246 258 268 262 252 247 241 229 225 229 229 200 186 160 144 144 159 174 147 151 138 135 154 153 171 179 112 61 73 121 128 138
78 238 241 234 228 232 234 250 269 288 297 265 264 269 270 255 239 236 229 229 223 223 209 190 186 163 155 165 173 181 179 158 153 152 164 167 173 183 174 53 41 62 92 135
190 244 235 196 216 224 240 223 244 265 316 307 304 295 269 273 248 244 232 226 215 199 191 188 182 180 175 175 182 185 185 157 143 118 106 90 79 47 33 25 351 355 18 94
236 268 258 209 223 208 251 233 228 247 289 278 221 284 278 257 268 253 241 226 208 185 172 168 179 178 184 196 184 184 171 155 136 124 117 120 129 194 240 234 239 306 8 359
243 253 208 227 239 206 233 245 234 236 220 289 247 236 284 260 258 253 235 216 204 183 173 168 178 183 188 191 183 174 151 139 135 130 136 145 167 225 257 215 234 274 308 329
248 259 221 223 251 210 218 38 26 45 80 273 232 201 278 249 250 262 229 209 198 187 175 164 166 166 181 186 169 155 146 137 135 134 141 150 169 202 271 274 245 272 290 309
303 285 256 199 118 48 107 98 39 358 325 253 220 206 256 268 260 235 209 201 189 179 168 154 149 181 173 166 170 160 150 149 138 139 163 174 189 202 221 238 230 254 268 284
210 272 239 202 187 192 190 157 164 202 235 278 262 236 260 299 313 264 166 151 137 154 173 187 185 176 185 174 175 166 160 166 167 177 207 201 202 207 230 245 241 238 245 245
192 247 288 224 193 154 158 194 173 155 248 275 268 277 298 337 2 34 70 94 130 163 165 191 190 176 182 186 191 181 176 185 196 202 221 225 228 223 231 248 251 242 251 258
169 231 280 278 94 93 162 154 121 150 198 261 283 271 262 275 276 314 2 23 278 295 270 259 256 264 264 213 225 157 163 184 209 214 223 249 249 247 246 248 265 259 256 257
158 178 295 327 194 190 159 164 156 165 181 195 270 272 231 220 220 209 231 243 225 229 237 246 261 260 254 93 29 48 203 232 242 236 234 234 244 249 247 257 266 263 257 252
167 146 238 249 257 213 190 188 162 177 234 209 223 265 279 229 223 207 226 247 248 239 235 228 234 268 315 319 287 280 269 258 258 253 251 251 252 254 256 258 264 264 258 256
145 140 5 338 324 351 221 217 190 167 168 198 213 259 308 8 293 251 245 257 264 274 287 296 285 269 264 266 271 273 269 264 265 260 259 262 256 251 256 260 266 264 261 265
151 168 197 215 229 200 248 248 216 179 207 229 231 251 275 281 285 288 274 262 266 274 274 276 280 280 276 269 269 271 271 268 270 266 268 270 266 260 260 265 263 265 260 259
115 215 236 256 264 235 242 244 227 222 221 223 242 246 259 258 256 259 262 258 266 285 285 274 272 276 276 274 271 265 265 263 261 257 260 263 265 266 272 279 276 270 260 262
91 203 272 283 268 253 268 257 236 234 237 240 256 267 262 259 271 273 266 251 264 278 274 272 274 276 268 265 269 272 267 264 252 248 256 267 272 270 275 285 285 273 266 266
176 150 156 271 308 334 275 245 222 219 218 210 236 250 261 276 264 252 247 246 255 265 273 270 262 253 254 254 254 256 259 258 241 244 258 261 263 265 268 278 283 270 262 266
167 154 172 261 5 247 247 226 196 214 240 226 241 256 251 252 263 251 226 229 262 278 279 273 266 263 264 258 260 262 254 249 246 254 260 263 267 269 264 265 269 267 263 257
178 164 166 175 244 273 281 253 195 208 262 236 235 258 266 282 315 284 241 235 250 263 266 262 261 260 258 260 261 260 258 254 256 261 258 262 260 260 258 262 264 266 260 256
97 136 162 177 212 244 258 255 220 156 269 255 220 239 243 141 261 264 280 296 294 296 285 278 281 275 266 266 256 245 263 261 262 265 262 259 256 249 251 252 260 266 261 260
140 157 195 206 232 260 260 259 114 173 256 262 211 220 211 206 223 255 298 304 303 305 299 297 291 280 262 250 222 238 263 264 272 280 283 275 259 248 254 254 256 259 263 262
186 184 199 187 218 252 216 142 187 228 261 224 222 223 226 235 250 266 275 288 306 317 315 313 303 297 290 259 220 252 267 278 295 301 298 291 282 261 264 247 256 259 259 265
206 203 201 202 220 246 195 206 229 216 231 238 228 240 228 245 260 271 276 280 291 297 301 301 291 300 310 300 249 260 283 298 309 309 303 301 297 280 269 250 249 261 253 257
253 217 215 253 262 254 245 244 254 233 230 241 234 239 232 242 252 267 277 282 288 293 295 301 303 300 303 302 293 279 289 300 303 301 306 309 303 303 301 288 264 256 251 256
233 198 222 254 274 292 274 237 233 240 240 243 253 245 233 233 249 255 268 277 283 291 297 300 289 284 291 300 298 304 305 299 297 298 303 306 306 305 316 312 300 284 270 266
213 200 203 236 236 225 258 258 224 222 236 236 246 270 265 235 248 261 264 268 274 284 291 296 294 293 297 303 304 309 309 297 288 298 305 304 307 307 309 315 325 326 315 314
Height
1503 1508 1509 1507 1507 1506 1507 1508 1508 1504 1501 1502 1501 1498 1494 1492 1492 1491 1490 1490 1490 1490 1490 1491 1492 1493 1494 1496 1498 1499 1500 1501 1503 1504 1505 1505 1506 1508 1509 1510 1511 1512 1512 1513
1508 1508 1504 1503 1504 1505 1506 1508 1507 1503 1500 1501 1500 1496 1491 1489 1488 1487 1486 1486 1486 1487 1487 1488 1490 1490 1492 1493 1495 1496 1497 1499 1500 1501 1502 1503 1504 1504 1506 1507 1508 1508 1509 1510
1506 1504 1501 1502 1504 1505 1505 1506 1506 1505 1502 1499 1500 1495 1490 1486 1485 1484 1483 1483 1483 1483 1484 1485 1487 1488 1489 1491 1492 1493 1495 1496 1497 1498 1500 1501 1501 1502 1502 1503 1504 1505 1506 1506
1505 1502 1501 1502 1502 1503 1504 1501 1501 1502 1506 1507 1503 1504 1490 1486 1483 1482 1481 1481 1480 1481 1482 1482 1484 1485 1486 1487 1489 1491 1492 1493 1494 1495 1496 1497 1497 1497 1498 1499 1500 1501 1502 1502
1503 1500 1500 1501 1500 1500 1501 1499 1500 1501 1505 1507 1504 1506 1491 1485 1483 1479 1478 1478 1478 1479 1480 1480 1481 1482 1484 1485 1486 1488 1489 1490 1491 1492 1493 1494 1495 1495 1495 1496 1497 1498 1498 1498
1501 1499 1499 1498 1497 1497 1498 1500 1501 1504 1507 1509 1501 1504 1492 1487 1480 1476 1475 1476 1476 1477 1478 1478 1480 1481 1482 1483 1484 1484 1486 1487 1488 1489 1490 1491 1491 1491 1492 1492 1492 1493 1494 1494
1503 1499 1497 1497 1498 1498 1499 1506 1513 1512 1515 1506 1497 1497 1489 1479 1475 1474 1473 1474 1474 1475 1475 1476 1477 1478 1479 1480 1481 1481 1483 1484 1485 1486 1487 1487 1487 1488 1488 1488 1488 1488 1489 1489
1505 1503 1497 1496 1497 1498 1500 1503 1511 1512 1512 1505 1496 1495 1484 1476 1473 1472 1472 1472 1473 1474 1475 1475 1476 1476 1477 1477 1478 1479 1480 1480 1482 1482 1483 1483 1484 1484 1484 1484 1484 1484 1484 1484
1503 1501 1495 1494 1494 1495 1499 1503 1502 1508 1509 1507 1497 1490 1481 1475 1473 1472 1472 1472 1472 1473 1474 1474 1474 1475 1475 1475 1476 1476 1477 1477 1478 1479 1479 1480 1480 1480 1480 1480 1480 1480 1480 1480
1498 1502 1497 1494 1494 1495 1496 1498 1504 1507 1507 1502 1495 1490 1484 1478 1476 1474 1473 1472 1472 1472 1473 1473 1473 1473 1473 1474 1474 1474 1474 1474 1474 1475 1475 1475 1475 1475 1475 1476 1475 1475 1476 1476
1497 1501 1500 1497 1496 1495 1497 1499 1500 1504 1506 1504 1498 1488 1476 1475 1474 1473 1472 1472 1472 1472 1472 1472 1472 1472 1472 1471 1471 1471 1471 1471 1471 1471 1471 1471 1471 1471 1471 1471 1471 1471 1471 1471
1496 1501 1503 1499 1494 1493 1493 1494 1498 1503 1503 1504 1502 1489 1473 1473 1472 1472 1472 1472 1472 1472 1471 1471 1471 1470 1469 1469 1468 1468 1468 1467 1467 1467 1467 1467 1467 1466 1466 1466 1466 1466 1466 1466
1496 1500 1502 1498 1498 1496 1495 1494 1495 1498 1501 1504 1500 1486 1474 1472 1472 1471 1471 1470 1470 1470 1469 1469 1468 1467 1467 1466 1465 1465 1464 1464 1464 1463 1463 1463 1462 1462 1461 1461 1461 1461 1461 1461
1494 1499 1499 1495 1492 1495 1496 1495 1495 1496 1499 1498 1491 1481 1475 1473 1472 1470 1469 1468 1468 1468 1467 1466 1465 1465 1464 1463 1462 1461 1461 1460 1460 1459 1459 1458 1457 1457 1457 1456 1456 1456 1456 1456
1493 1498 1496 1494 1492 1493 1492 1491 1492 1492 1490 1490 1481 1478 1471 1471 1470 1468 1467 1467 1466 1465 1465 1464 1462 1461 1460 1459 1458 1458 1457 1457 1456 1456 1455 1454 1454 1453 1453 1452 1451 1451 1451 1451
1494 1497 1497 1495 1491 1491 1489 1485 1486 1485 1484 1483 1479 1475 1468 1468 1468 1466 1465 1464 1464 1463 1462 1460 1459 1457 1456 1455 1454 1454 1453 1453 1452 1452 1451 1451 1450 1449 1448 1447 1447 1447 1447 1447
1496 1497 1499 1497 1493 1489 1487 1480 1479 1479 1478 1477 1475 1469 1466 1466 1465 1463 1462 1462 1461 1460 1459 1457 1455 1454 1453 1452 1451 1449 1449 1448 1448 1448 1447 1447 1446 1445 1445 1444 1444 1444 1443 1442
1494 1496 1499 1499 1497 1494 1477 1472 1473 1473 1471 1470 1467 1464 1463 1463 1461 1460 1460 1459 1458 1457 1455 1453 1452 1451 1449 1448 1447 1446 1445 1444 1444 1443 1443 1443 1442 1442 1441 1441 1440 1440 1439 1438
1489 1494 1499 1501 1499 1488 1475 1470 1471 1472 1468 1465 1465 1462 1461 1461 1460 1458 1457 1457 1456 1454 1453 1451 1450 1448 1446 1445 1444 1443 1442 1441 1440 1439 1438 1438 1438 1438 1437 1437 1436 1435 1435 1434
1490 1492 1497 1500 1495 1486 1471 1467 1465 1469 1468 1460 1460 1459 1459 1459 1461 1456 1455 1454 1453 1451 1450 1448 1447 1445 1443 1442 1440 1439 1438 1437 1436 1435 1434 1434 1434 1434 1433 1433 1432 1431 1430 1430
1493 1495 1496 1496 1494 1480 1468 1465 1466 1472 1464 1457 1456 1456 1456 1456 1456 1454 1452 1451 1450 1449 1447 1446 1444 1442 1440 1439 1437 1436 1434 1433 1432 1432 1431 1431 1430 1430 1429 1429 1428 1427 1427 1426
1488 1491 1493 1493 1491 1477 1464 1465 1466 1462 1456 1455 1454 1454 1454 1452 1451 1451 1450 1449 1447 1446 1444 1443 1441 1439 1437 1436 1434 1432 1431 1430 1430 1428 1428 1427 1426 1426 1426 1425 1424 1424 1423 1422
1482 1480 1478 1477 1470 1461 1459 1458 1457 1456 1455 1454 1453 1452 1452 1450 1449 1448 1447 1446 1445 1443 1442 1440 1438 1436 1435 1433 1432 1430 1429 1428 1427 1426 1425 1424 1423 1423 1422 1421 1420 1420 1419 1418
1476 1473 1474 1471 1461 1457 1456 1455 1454 1454 1453 1452 1451 1450 1449 1448 1447 1446 1445 1444 1442 1441 1439 1438 1436 1434 1433 1431 1430 1429 1428 1426 1424 1423 1422 1421 1420 1419 1419 1418 1417 1416 1415 1414
1469 1470 1470 1466 1459 1455 1452 1451 1451 1450 1450 1449 1448 1448 1447 1446 1444 1444 1442 1441 1440 1439 1437 1436 1434 1432 1431 1429 1428 1427 1425 1424 1422 1421 1420 1419 1418 1417 1416 1415 1414 1413 1412 1411
1462 1463 1463 1458 1452 1452 1449 1448 1448 1447 1447 1446 1446 1445 1444 1443 1442 1441 1440 1439 1438 1436 1435 1433 1432 1430 1429 1427 1426 1424 1423 1422 1420 1418 1417 1416 1415 1414 1413 1412 1411 1410 1409 1408